Regional Weather Roundup
Issued by NWS

Home | Current Version | Previous Version | Graphics & Text | Print | Product List | Glossary On
Versions: 1 2 3 4 5 6 7 8 9 10 11 12 13 14 15 16 17 18 19 20 21 22 23 24 25 26 27 28 29 30 31 32 33 34 35 36 37 38 39 40 41 42 43 44 45 46 47 48 49 50
802
ASUS43 KDMX 231708
RWRIA

WEATHER ROUNDUP FOR IOWA
NATIONAL WEATHER SERVICE DES MOINES IA
1200 PM CDT TUE AUG 23 2016

NOTE: "FAIR" INDICATES FEW OR NO CLOUDS BELOW 12,000 FEET WITH NO
SIGNIFICANT WEATHER AND/OR OBSTRUCTIONS TO VISIBILITY.

* - THESE STATIONS ARE NOT NWS STATIONS...THUS NOT UNDER NWS
QUALITY CONTROL.  THEY ALSO DO NOT REPORT WEATHER SUCH
AS PRECIPITATION OR FOG.

IAZ001>003-012>014-020>022-031>034-043>046-231800-
   NORTHWEST IOWA

CITY           SKY/WX    TMP DP  RH WIND       PRES   REMARKS
CARROLL *      MOSUNNY   81  72  74 S14       29.96F HX  84
CHEROKEE *     PTSUNNY   76  71  83 S10       29.92F
DENISON *      PTSUNNY   75  70  83 S15G28    29.91F
LE MARS *      DRIZZLE   72  68  88 S12       29.92R
ORANGE CITY *  LGT RAIN  72  68  88 S7        29.91F
SHELDON *      CLOUDY    73  70  88 S15G23    29.90F
SIOUX CITY     CLOUDY    73  67  81 SE14      29.89F
SPENCER        CLOUDY    76  67  73 S12       29.93F
STORM LAKE *   MOSUNNY   77  72  83 S15       29.95F
$$

IAZ055>058-069>071-079>083-090>094-231800-
   SOUTHWEST IOWA

CITY           SKY/WX    TMP DP  RH WIND       PRES   REMARKS
ATLANTIC *     CLOUDY    72  68  88 S14       29.98F
AUDUBON *      CLOUDY    75  70  83 S9        29.99S
CLARINDA *       N/A     73  70  88 MISG      30.01S
COUNCIL BLFS * PTSUNNY   73  70  88 SE16      29.95F
CRESTON *      CLOUDY    72  68  88 SE12G20   30.02F
HARLAN  *      CLOUDY    72  68  88 S14G21    29.99F FOG
LAMONI         CLOUDY    72  69  90 S10       30.04F
RED OAK *      CLOUDY    73  70  88 SE13G21   29.97F
SHENANDOAH *   CLOUDY    75 -35   1 S13G18    29.96F
$$

IAZ047>049-059>061-072>074-084-231800-
   CENTRAL IOWA

CITY           SKY/WX    TMP DP  RH WIND       PRES   REMARKS
AMES           SUNNY     79  69  71 S18       30.02F HX  81
ANKENY *         N/A    N/A N/A N/A MISG        N/A
BOONE *        SUNNY     79  68  69 S14G23    30.00S HX  81
CHARITON *       N/A     77  70  78 MISG      30.05S
DES MOINES     PTSUNNY   81  67  62 S17G26    30.02F HX  83
GRINNELL*      SUNNY     78  66  65 SE15G21   30.06F HX  80
KNOXVILLE *    MOSUNNY   79  66  65 S16G24    30.03F HX  81
NEWTON *       MOSUNNY   79  70  73 SE12G18   30.04F HX  81
PERRY *          N/A     78  72  82 SE13G21   29.99F HX  80
$$

IAZ004>006-015-016-023>025-035-036-231800-
   NORTH CENTRAL IOWA

CITY           SKY/WX    TMP DP  RH WIND       PRES   REMARKS
ALGONA *       MOSUNNY   79  70  73 S14G22    29.97F HX  81
ESTHERVILLE    PTSUNNY   75  69  81 S20       29.94F
FORT DODGE *   SUNNY     79  70  73 S13G22    29.99F HX  81
MASON CITY     MOSUNNY   78  67  68 S18G24    30.01F HX  80
FOREST CITY *    N/A     77  68  73 S15G24    29.99S
WEBSTER CITY * SUNNY     79  70  73 S16G23    29.98F HX  81
IOWA FALLS *     N/A     80  68  67 S14G24    30.04F HX  82
$$

IAZ007>011-017>019-026>030-037>042-050>054-066-231800-
   NORTHEAST IOWA

CITY           SKY/WX    TMP DP  RH WIND       PRES   REMARKS
CEDAR RAPIDS   SUNNY     77  69  76 SE12      30.09F
CHARLES CITY * SUNNY     77  70  78 S16       30.05S
DECORAH *      MOSUNNY   77  68  73 S10G17    30.06F
DUBUQUE        SUNNY     76  65  68 S15       30.13F
MONTICELLO *   SUNNY     77  68  73 S13G18    30.11F
OELWEIN *      SUNNY     77  68  73 S14       30.09S
WATERLOO       SUNNY     78  66  66 S14       30.04F HX  80
$$

IAZ064-065-067-068-078-231800-
   EAST CENTRAL IOWA

CITY           SKY/WX    TMP DP  RH WIND       PRES   REMARKS
DAVENPORT      MOSUNNY   79  64  60 S13G20    30.14F HX  81
IOWA CITY      SUNNY     79  68  69 S14       30.11F HX  81
MT. PLEASANT * MOSUNNY   81  67  60 SE14G20   30.11F HX  84
MUSCATINE *    MOSUNNY   81  64  57 S16       30.11F HX  82
QUAD CITIES    SUNNY     79  64  60 S15G23    30.13F HX  81
$$

IAZ062-063-075>077-085>089-095>099-231800-
   SOUTHEAST IOWA

CITY           SKY/WX    TMP DP  RH WIND       PRES   REMARKS
BURLINGTON     PTSUNNY   78  65  63 S15       30.12F HX  80
FAIRFIELD *    MOSUNNY   79  68  69 SE12G20   30.08F HX  81
FORT MADISON * MOSUNNY   79  66  65 SE9G16    30.12F HX  81
KEOKUK *       MOSUNNY   79  66  65 S14G26    30.10F HX  81
OSKALOOSA *      N/A     78  68  70 SE15G21   30.07F HX  80
CENTERVILLE *    N/A     77  70  78 S10       30.09S
OTTUMWA        SUNNY     78  67  68 SE12      30.07F HX  80
WASHINGTON *   MOSUNNY   77  70  78 S12       30.11F
$$

ABBREVIATIONS USED IN REMARKS
   TC - TEMPERATURES IN CELSIUS
  WCI - WIND CHILL INDEX
   HX - HEAT INDEX
  VSB - VISIBILITY
$$





USA.gov is the U.S. government's official web portal to all federal, state and local government web resources and services.